• In Österreich
  • Länderverzeichnis
  • Für 7 Tage
  • Wassertemperatur
  • Satellitenkarten
  • Wetterkarte
  • News
  • Widgets
  • user-avatar
    Anmelden

    Stündliche Wetter Tanger

    Heute, 22 Juni, Freitag

    Zeit Temperatur Niederschläge Wind Luftdruck Luftfeuchtigkeit
    00:00 +21°C° 0,2 mm 1 m/S 761 mmHg 89%
    01:00 +21°C° 0,3 mm 1 m/S 761 mmHg 89%
    02:00 +21°C° 0,3 mm 1 m/S 761 mmHg 89%
    03:00 +21°C° 0,3 mm 1 m/S 761 mmHg 90%
    04:00 +21°C° 0,1 mm 1 m/S 761 mmHg 89%
    05:00 +21°C° 0,1 mm 1 m/S 761 mmHg 88%
    06:00 +22°C° 0,1 mm 1 m/S 761 mmHg 88%
    07:00 +23°C° 0 mm 1 m/S 761 mmHg 82%
    08:00 +24°C° 0 mm 1 m/S 761 mmHg 77%
    09:00 +25°C° 0 mm 1 m/S 761 mmHg 71%
    10:00 +26°C° 0 mm 2 m/S 761 mmHg 67%
    11:00 +28°C° 0 mm 2 m/S 761 mmHg 62%
    12:00 +29°C° 0 mm 3 m/S 761 mmHg 58%
    13:00 +29°C° 0 mm 3 m/S 760 mmHg 57%
    14:00 +29°C° 0 mm 3 m/S 760 mmHg 57%
    15:00 +29°C° 0 mm 3 m/S 760 mmHg 56%
    16:00 +28°C° 0 mm 3 m/S 760 mmHg 58%
    17:00 +28°C° 0 mm 3 m/S 759 mmHg 59%
    18:00 +27°C° 0 mm 3 m/S 759 mmHg 61%
    19:00 +26°C° 0 mm 3 m/S 760 mmHg 67%
    20:00 +24°C° 0 mm 2 m/S 760 mmHg 73%
    21:00 +23°C° 0 mm 2 m/S 760 mmHg 79%
    22:00 +23°C° 0 mm 2 m/S 761 mmHg 80%
    23:00 +22°C° 0 mm 1 m/S 761 mmHg 81%

    Morgen, 23 Juni, Samstag

    Zeit Temperatur Niederschläge Wind Luftdruck Luftfeuchtigkeit
    00:00 +22°C° 0 mm 1 m/S 761 mmHg 82%
    01:00 +22°C° 0 mm 1 m/S 761 mmHg 82%
    02:00 +22°C° 0 mm 1 m/S 760 mmHg 83%
    03:00 +21°C° 0 mm 1 m/S 760 mmHg 83%
    04:00 +22°C° 0 mm 1 m/S 760 mmHg 83%
    05:00 +22°C° 0 mm 1 m/S 760 mmHg 82%
    06:00 +22°C° 0 mm 1 m/S 760 mmHg 81%
    07:00 +24°C° 0 mm 1 m/S 760 mmHg 74%
    08:00 +25°C° 0 mm 1 m/S 760 mmHg 67%
    09:00 +27°C° 0 mm 1 m/S 760 mmHg 60%
    10:00 +28°C° 0 mm 2 m/S 760 mmHg 56%
    11:00 +30°C° 0 mm 2 m/S 760 mmHg 52%
    12:00 +31°C° 0 mm 3 m/S 760 mmHg 47%
    13:00 +31°C° 0 mm 3 m/S 760 mmHg 46%
    14:00 +32°C° 0 mm 4 m/S 759 mmHg 45%
    15:00 +32°C° 0 mm 4 m/S 759 mmHg 44%
    16:00 +32°C° 0 mm 4 m/S 759 mmHg 47%
    17:00 +30°C° 0 mm 4 m/S 759 mmHg 49%
    18:00 +29°C° 0 mm 4 m/S 759 mmHg 51%
    19:00 +27°C° 0 mm 3 m/S 759 mmHg 58%
    20:00 +26°C° 0 mm 3 m/S 760 mmHg 65%
    21:00 +24°C° 0 mm 3 m/S 760 mmHg 72%
    22:00 +22°C° 0 mm 3 m/S 760 mmHg 74%
    23:00 +22°C° 0 mm 3 m/S 760 mmHg 76%

    übermorgen, 24 Juni, Sonntag

    Zeit Temperatur Niederschläge Wind Luftdruck Luftfeuchtigkeit
    00:00 +22°C° 0 mm 3 m/S 760 mmHg 78%
    01:00 +21°C° 0 mm 3 m/S 760 mmHg 78%
    02:00 +21°C° 0 mm 2 m/S 760 mmHg 79%
    03:00 +21°C° 0 mm 2 m/S 759 mmHg 80%
    04:00 +21°C° 0 mm 2 m/S 760 mmHg 80%
    05:00 +21°C° 0 mm 2 m/S 760 mmHg 81%
    06:00 +21°C° 0 mm 2 m/S 760 mmHg 81%
    07:00 +24°C° 0 mm 2 m/S 760 mmHg 75%
    08:00 +26°C° 0 mm 2 m/S 760 mmHg 69%
    09:00 +27°C° 0 mm 2 m/S 760 mmHg 63%
    10:00 +28°C° 0 mm 2 m/S 760 mmHg 60%
    11:00 +29°C° 0 mm 3 m/S 760 mmHg 57%
    12:00 +30°C° 0 mm 3 m/S 760 mmHg 54%
    13:00 +30°C° 0 mm 3 m/S 760 mmHg 54%
    14:00 +30°C° 0 mm 3 m/S 760 mmHg 54%
    15:00 +30°C° 0 mm 4 m/S 759 mmHg 55%
    16:00 +29°C° 0 mm 4 m/S 759 mmHg 59%
    17:00 +28°C° 0 mm 3 m/S 759 mmHg 62%
    18:00 +27°C° 0 mm 3 m/S 759 mmHg 66%
    19:00 +26°C° 0 mm 3 m/S 760 mmHg 72%
    20:00 +24°C° 0 mm 3 m/S 760 mmHg 78%
    21:00 +22°C° 0 mm 3 m/S 761 mmHg 84%
    22:00 +22°C° 0 mm 3 m/S 761 mmHg 86%
    23:00 +21°C° 0 mm 3 m/S 761 mmHg 87%

    25 Juni, Montag

    Zeit Temperatur Niederschläge Wind Luftdruck Luftfeuchtigkeit
    00:00 +21°C° 0 mm 3 m/S 761 mmHg 89%
    01:00 +20°C° 0 mm 3 m/S 760 mmHg 90%
    02:00 +20°C° 0 mm 3 m/S 760 mmHg 91%
    03:00 +20°C° 0 mm 3 m/S 760 mmHg 91%
    04:00 +20°C° 0 mm 3 m/S 760 mmHg 90%
    05:00 +20°C° 0 mm 2 m/S 760 mmHg 89%
    06:00 +20°C° 0 mm 2 m/S 760 mmHg 88%
    07:00 +23°C° 0 mm 2 m/S 760 mmHg 78%
    08:00 +24°C° 0 mm 3 m/S 760 mmHg 67%
    09:00 +26°C° 0 mm 3 m/S 760 mmHg 57%
    10:00 +27°C° 0 mm 3 m/S 760 mmHg 53%
    11:00 +28°C° 0 mm 3 m/S 760 mmHg 49%
    12:00 +29°C° 0 mm 4 m/S 760 mmHg 45%
    13:00 +30°C° 0 mm 4 m/S 760 mmHg 44%
    14:00 +30°C° 0 mm 4 m/S 759 mmHg 43%
    15:00 +30°C° 0 mm 4 m/S 759 mmHg 42%
    16:00 +29°C° 0 mm 4 m/S 759 mmHg 44%
    17:00 +28°C° 0 mm 4 m/S 759 mmHg 47%
    18:00 +28°C° 0 mm 4 m/S 759 mmHg 49%
    19:00 +26°C° 0 mm 4 m/S 759 mmHg 55%
    20:00 +24°C° 0 mm 3 m/S 759 mmHg 62%
    21:00 +21°C° 0 mm 3 m/S 760 mmHg 68%
    22:00 +21°C° 0 mm 3 m/S 760 mmHg 70%
    23:00 +21°C° 0 mm 3 m/S 759 mmHg 72%

    26 Juni, Dienstag

    Zeit Temperatur Niederschläge Wind Luftdruck Luftfeuchtigkeit
    00:00 +20°C° 0 mm 3 m/S 759 mmHg 75%
    01:00 +20°C° 0 mm 3 m/S 759 mmHg 75%
    02:00 +20°C° 0 mm 3 m/S 759 mmHg 76%
    03:00 +20°C° 0 mm 3 m/S 758 mmHg 77%
    04:00 +20°C° 0 mm 3 m/S 759 mmHg 77%
    05:00 +20°C° 0 mm 3 m/S 759 mmHg 77%
    06:00 +20°C° 0 mm 3 m/S 759 mmHg 77%
    07:00 +22°C° 0 mm 3 m/S 759 mmHg 71%
    08:00 +25°C° 0 mm 3 m/S 759 mmHg 64%
    09:00 +26°C° 0 mm 3 m/S 759 mmHg 58%
    10:00 +27°C° 0 mm 4 m/S 759 mmHg 55%
    11:00 +28°C° 0 mm 4 m/S 759 mmHg 52%
    12:00 +30°C° 0 mm 4 m/S 759 mmHg 49%
    13:00 +29°C° 0 mm 4 m/S 759 mmHg 49%
    14:00 +29°C° 0 mm 5 m/S 759 mmHg 50%
    15:00 +29°C° 0 mm 5 m/S 759 mmHg 50%
    16:00 +28°C° 0 mm 5 m/S 759 mmHg 53%
    17:00 +28°C° 0 mm 4 m/S 759 mmHg 56%
    18:00 +27°C° 0 mm 4 m/S 759 mmHg 59%
    19:00 +25°C° 0 mm 4 m/S 759 mmHg 66%
    20:00 +22°C° 0 mm 4 m/S 760 mmHg 73%
    21:00 +21°C° 0 mm 3 m/S 760 mmHg 80%
    22:00 +20°C° 0 mm 3 m/S 760 mmHg 83%
    23:00 +20°C° 0 mm 3 m/S 760 mmHg 85%

    27 Juni, Mittwoch

    Zeit Temperatur Niederschläge Wind Luftdruck Luftfeuchtigkeit
    00:00 +19°C° 0 mm 3 m/S 760 mmHg 88%
    01:00 +19°C° 0 mm 3 m/S 760 mmHg 88%
    02:00 +19°C° 0 mm 3 m/S 760 mmHg 88%
    03:00 +19°C° 0 mm 3 m/S 760 mmHg 88%
    04:00 +19°C° 0 mm 3 m/S 760 mmHg 86%
    05:00 +19°C° 0 mm 3 m/S 760 mmHg 84%
    06:00 +19°C° 0 mm 3 m/S 760 mmHg 83%
    07:00 +21°C° 0 mm 3 m/S 760 mmHg 75%
    08:00 +24°C° 0 mm 3 m/S 760 mmHg 66%
    09:00 +26°C° 0 mm 3 m/S 760 mmHg 58%
    10:00 +27°C° 0 mm 3 m/S 760 mmHg 55%
    11:00 +28°C° 0 mm 4 m/S 760 mmHg 52%
    12:00 +29°C° 0 mm 4 m/S 760 mmHg 48%
    13:00 +28°C° 0 mm 4 m/S 760 mmHg 49%
    14:00 +28°C° 0 mm 4 m/S 760 mmHg 49%
    15:00 +28°C° 0 mm 5 m/S 759 mmHg 49%
    16:00 +28°C° 0 mm 4 m/S 759 mmHg 52%
    17:00 +27°C° 0 mm 4 m/S 759 mmHg 54%
    18:00 +26°C° 0 mm 4 m/S 759 mmHg 57%
    19:00 +23°C° 0 mm 4 m/S 760 mmHg 65%
    20:00 +22°C° 0 mm 4 m/S 760 mmHg 73%
    21:00 +20°C° 0 mm 3 m/S 760 mmHg 81%
    22:00 +20°C° 0 mm 3 m/S 760 mmHg 84%
    23:00 +19°C° 0 mm 3 m/S 760 mmHg 87%
    Mehr zeigen